Location: *
(50.3194°N, 7.1067°E)
Time: 23:54:31
(UTC+00:00)

Cosmos 2366 rocket - Pass Details

Date: 22 September 2019
Orbit: 956 x 996 km, 82.9° (Epoch: 20 October)

Event Time Altitude Azimuth Distance (km) Brightness Sun altitude
Rises 18:42:30 0° 352° (N) 3,728 7.4 -12.2°
Reaches altitude 10° 18:45:07 10° 357° (N) 2,776 6.6 -12.6°
Maximum altitude 18:51:23 55° 75° (ENE) 1,191 4.2 -13.5°
Drops below altitude 10° 18:57:34 10° 152° (SSE) 2,754 5.9 -14.5°
Enters shadow 18:58:01 - 153° (SSE) 2,916 6.1 -14.5°
